When you browse on this site, cookies collect data to enhance your experience and personalize the content and advertising you see.
Visit our Privacy Policy to learn more. By continuing to use the site, you agree to this use of cookies and data.
  • En España
  • Lista de países
  • Para 7 días
  • Temperatura del agua
  • Mapa Satelital
  • El tiempo en el mapa
  • Informadores
  • user-avatar
    Iniciar sesión

    Tiempo cada hora Constantine

    Hoy, 19 Diciembre, Miércoles

    Tiempo Temperatura Precipitaciones Viento Presión Humedad
    00:00 +7°C° 0 mm 2 mps 715 mmHg 45%
    01:00 +7°C° 0 mm 2 mps 714 mmHg 47%
    02:00 +7°C° 0 mm 2 mps 714 mmHg 48%
    03:00 +7°C° 0 mm 2 mps 714 mmHg 50%
    04:00 +7°C° 0 mm 2 mps 714 mmHg 52%
    05:00 +7°C° 0 mm 2 mps 714 mmHg 55%
    06:00 +7°C° 0 mm 2 mps 714 mmHg 57%
    07:00 +8°C° 0 mm 2 mps 715 mmHg 55%
    08:00 +10°C° 0 mm 2 mps 715 mmHg 53%
    09:00 +13°C° 0 mm 2 mps 715 mmHg 51%
    10:00 +14°C° 0 mm 2 mps 715 mmHg 47%
    11:00 +16°C° 0 mm 2 mps 715 mmHg 43%
    12:00 +19°C° 0 mm 1 mps 715 mmHg 39%
    13:00 +18°C° 0 mm 1 mps 715 mmHg 41%
    14:00 +18°C° 0 mm 1 mps 715 mmHg 43%
    15:00 +18°C° 0 mm 1 mps 715 mmHg 45%
    16:00 +16°C° 0 mm 1 mps 714 mmHg 49%
    17:00 +14°C° 0 mm 1 mps 714 mmHg 54%
    18:00 +12°C° 0 mm 1 mps 714 mmHg 58%
    19:00 +12°C° 0 mm 1 mps 714 mmHg 60%
    20:00 +11°C° 0 mm 1 mps 714 mmHg 62%
    21:00 +10°C° 0 mm 1 mps 714 mmHg 64%
    22:00 +10°C° 0 mm 1 mps 714 mmHg 65%
    23:00 +10°C° 0 mm 1 mps 715 mmHg 65%

    Mañana, 20 Diciembre, Jueves

    Tiempo Temperatura Precipitaciones Viento Presión Humedad
    00:00 +10°C° 0 mm 1 mps 715 mmHg 66%
    01:00 +9°C° 0 mm 1 mps 714 mmHg 67%
    02:00 +9°C° 0 mm 1 mps 714 mmHg 68%
    03:00 +9°C° 0 mm 1 mps 714 mmHg 69%
    04:00 +9°C° 0 mm 1 mps 714 mmHg 70%
    05:00 +9°C° 0 mm 1 mps 714 mmHg 70%
    06:00 +7°C° 0 mm 0 mps 714 mmHg 71%
    07:00 +9°C° 0 mm 0 mps 715 mmHg 66%
    08:00 +11°C° 0 mm 0 mps 716 mmHg 60%
    09:00 +12°C° 0 mm 0 mps 716 mmHg 55%
    10:00 +13°C° 0 mm 0 mps 716 mmHg 53%
    11:00 +15°C° 0 mm 1 mps 716 mmHg 50%
    12:00 +16°C° 0 mm 1 mps 716 mmHg 48%
    13:00 +16°C° 0 mm 1 mps 716 mmHg 51%
    14:00 +16°C° 0 mm 2 mps 716 mmHg 54%
    15:00 +15°C° 0 mm 2 mps 715 mmHg 57%
    16:00 +14°C° 0.1 mm 2 mps 716 mmHg 64%
    17:00 +13°C° 0.1 mm 2 mps 716 mmHg 71%
    18:00 +12°C° 0.1 mm 1 mps 716 mmHg 78%
    19:00 +12°C° 0.1 mm 1 mps 717 mmHg 81%
    20:00 +11°C° 0.1 mm 1 mps 717 mmHg 84%
    21:00 +11°C° 0.1 mm 1 mps 717 mmHg 86%
    22:00 +11°C° 0 mm 1 mps 717 mmHg 88%
    23:00 +11°C° 0 mm 1 mps 718 mmHg 90%

    Pasado mañana, 21 Diciembre, Viernes

    Tiempo Temperatura Precipitaciones Viento Presión Humedad
    00:00 +10°C° 0 mm 1 mps 718 mmHg 92%
    01:00 +9°C° 0 mm 0 mps 718 mmHg 93%
    02:00 +9°C° 0 mm 0 mps 718 mmHg 94%
    03:00 +9°C° 0 mm 0 mps 718 mmHg 95%
    04:00 +8°C° 0 mm 0 mps 718 mmHg 95%
    05:00 +8°C° 0 mm 0 mps 718 mmHg 95%
    06:00 +7°C° 0 mm 0 mps 718 mmHg 95%
    07:00 +8°C° 0 mm 0 mps 719 mmHg 91%
    08:00 +9°C° 0 mm 0 mps 720 mmHg 87%
    09:00 +12°C° 0 mm 1 mps 720 mmHg 83%
    10:00 +12°C° 0 mm 1 mps 720 mmHg 76%
    11:00 +12°C° 0 mm 0 mps 720 mmHg 70%
    12:00 +13°C° 0 mm 0 mps 720 mmHg 63%
    13:00 +13°C° 0 mm 0 mps 720 mmHg 62%
    14:00 +14°C° 0 mm 1 mps 720 mmHg 60%
    15:00 +15°C° 0 mm 1 mps 719 mmHg 59%
    16:00 +13°C° 0 mm 1 mps 719 mmHg 66%
    17:00 +12°C° 0 mm 1 mps 719 mmHg 73%
    18:00 +9°C° 0 mm 0 mps 719 mmHg 80%
    19:00 +9°C° 0 mm 0 mps 720 mmHg 82%
    20:00 +9°C° 0 mm 0 mps 720 mmHg 83%
    21:00 +8°C° 0 mm 0 mps 720 mmHg 84%
    22:00 +9°C° 0 mm 1 mps 720 mmHg 84%
    23:00 +9°C° 0 mm 1 mps 719 mmHg 83%

    22 Diciembre, Sábado

    Tiempo Temperatura Precipitaciones Viento Presión Humedad
    00:00 +9°C° 0 mm 1 mps 719 mmHg 83%
    01:00 +9°C° 0 mm 1 mps 719 mmHg 83%
    02:00 +9°C° 0 mm 1 mps 719 mmHg 83%
    03:00 +9°C° 0 mm 1 mps 719 mmHg 83%
    04:00 +8°C° 0 mm 1 mps 719 mmHg 83%
    05:00 +7°C° 0 mm 2 mps 719 mmHg 83%
    06:00 +7°C° 0 mm 2 mps 719 mmHg 83%
    07:00 +9°C° 0 mm 2 mps 719 mmHg 77%
    08:00 +10°C° 0 mm 2 mps 720 mmHg 71%
    09:00 +13°C° 0 mm 2 mps 720 mmHg 64%
    10:00 +14°C° 0 mm 2 mps 720 mmHg 58%
    11:00 +15°C° 0 mm 2 mps 720 mmHg 51%
    12:00 +17°C° 0 mm 2 mps 720 mmHg 45%
    13:00 +17°C° 0 mm 2 mps 719 mmHg 45%
    14:00 +17°C° 0 mm 2 mps 719 mmHg 45%
    15:00 +17°C° 0 mm 2 mps 719 mmHg 45%
    16:00 +15°C° 0 mm 1 mps 719 mmHg 52%
    17:00 +13°C° 0 mm 1 mps 719 mmHg 59%
    18:00 +10°C° 0 mm 0 mps 718 mmHg 66%
    19:00 +11°C° 0 mm 1 mps 718 mmHg 67%
    20:00 +11°C° 0 mm 1 mps 718 mmHg 68%
    21:00 +10°C° 0 mm 1 mps 718 mmHg 68%
    22:00 +10°C° 0 mm 1 mps 718 mmHg 68%
    23:00 +10°C° 0 mm 1 mps 718 mmHg 67%

    23 Diciembre, Domingo

    Tiempo Temperatura Precipitaciones Viento Presión Humedad
    00:00 +10°C° 0 mm 1 mps 718 mmHg 66%
    01:00 +9°C° 0 mm 1 mps 718 mmHg 66%
    02:00 +9°C° 0 mm 1 mps 717 mmHg 66%
    03:00 +9°C° 0 mm 1 mps 717 mmHg 65%
    04:00 +9°C° 0 mm 1 mps 717 mmHg 65%
    05:00 +9°C° 0 mm 1 mps 717 mmHg 65%
    06:00 +8°C° 0 mm 1 mps 717 mmHg 64%
    07:00 +10°C° 0 mm 1 mps 718 mmHg 58%
    08:00 +12°C° 0 mm 1 mps 718 mmHg 52%
    09:00 +14°C° 0 mm 1 mps 719 mmHg 46%
    10:00 +15°C° 0 mm 1 mps 719 mmHg 42%
    11:00 +18°C° 0 mm 1 mps 719 mmHg 38%
    12:00 +19°C° 0 mm 1 mps 718 mmHg 33%
    13:00 +19°C° 0 mm 1 mps 718 mmHg 35%
    14:00 +19°C° 0 mm 1 mps 718 mmHg 36%
    15:00 +19°C° 0 mm 1 mps 718 mmHg 38%
    16:00 +16°C° 0 mm 1 mps 718 mmHg 44%
    17:00 +13°C° 0 mm 0 mps 717 mmHg 51%
    18:00 +11°C° 0 mm 0 mps 717 mmHg 57%
    19:00 +10°C° 0 mm 0 mps 717 mmHg 57%
    20:00 +10°C° 0 mm 0 mps 717 mmHg 57%
    21:00 +10°C° 0 mm 0 mps 718 mmHg 58%
    22:00 +11°C° 0 mm 1 mps 717 mmHg 56%
    23:00 +10°C° 0 mm 1 mps 717 mmHg 55%

    24 Diciembre, Lunes

    Tiempo Temperatura Precipitaciones Viento Presión Humedad
    00:00 +10°C° 0 mm 1 mps 717 mmHg 53%
    01:00 +10°C° 0 mm 1 mps 717 mmHg 52%
    02:00 +10°C° 0 mm 1 mps 717 mmHg 51%
    03:00 +10°C° 0 mm 1 mps 716 mmHg 50%
    04:00 +10°C° 0 mm 1 mps 716 mmHg 48%
    05:00 +9°C° 0 mm 1 mps 716 mmHg 47%
    06:00 +9°C° 0 mm 1 mps 716 mmHg 46%
    07:00 +11°C° 0 mm 1 mps 717 mmHg 43%
    08:00 +13°C° 0 mm 1 mps 717 mmHg 39%
    09:00 +15°C° 0 mm 1 mps 718 mmHg 36%
    10:00 +18°C° 0 mm 1 mps 718 mmHg 32%
    11:00 +19°C° 0 mm 1 mps 718 mmHg 29%
    12:00 +21°C° 0 mm 1 mps 717 mmHg 26%
    13:00 +21°C° 0 mm 1 mps 717 mmHg 29%
    14:00 +21°C° 0 mm 1 mps 717 mmHg 32%
    15:00 +21°C° 0 mm 1 mps 717 mmHg 35%
    16:00 +18°C° 0 mm 1 mps 717 mmHg 39%
    17:00 +15°C° 0 mm 1 mps 716 mmHg 42%
    18:00 +13°C° 0 mm 1 mps 716 mmHg 46%
    19:00 +12°C° 0 mm 1 mps 716 mmHg 45%
    20:00 +12°C° 0 mm 1 mps 716 mmHg 44%
    21:00 +12°C° 0 mm 1 mps 717 mmHg 43%
    22:00 +12°C° 0 mm 1 mps 716 mmHg 41%
    23:00 +12°C° 0 mm 1 mps 716 mmHg 39%
    Mostrar más